sat.trackr.live / text

‹ back to catalog

STARLINK-33674

NORAD 63329 · 2025-057Y

PAYLOAD ACTIVE UNKNOWN

§ Identity

Operator
Country
US
Launch date
2025-03-18
Launch site
AFETR
Launch vehicle
Mass (kg)
RCS (m²)

Purposes: comms

External: N2YO · Heavens-Above · Gunter

§ Orbital elements

Epoch: 2026-09-20T14:05:06.282528Z

Period
94.27 min
Inclination
42.9972°
Eccentricity
0.0000545
Mean motion
15.27590755 rev/d
Perigee alt
482.6 km
Apogee alt
483.4 km
Semi-major
6,861.2 km
B*
4.3848e-4
RAAN
10.2406°
Arg perigee
253.4149°
Mean anomaly
106.6643°
Rev number
8,558

§ Raw data

STARLINK-336741 63329U 25057Y   26263.58687827  .00011827  00000+0  43848-3 0  99902 63329  42.9972  10.2406 0000545 253.4149 106.6643 15.27590755 85581

JSON: /api/v1/satellites/63329 · /tle

For live sub-satellite position, see the globe view (requires WebGL).

§ Visibility from observer

Set your observer location to see the next 7 days of passes ≥ 10°. The values pass through the URL so the page stays shareable.

No JS? Fill the form by hand. The geolocation button needs JavaScript.